User: anonymous   Login
Location: Beaver Brook Station
(42.3793°N, 71.2203°W)
Time: 03:15:42
(UTC+00:00)
Language:

Hubble Space Telescope - Orbit

View from above orbital plane
View from above orbital plane
View from above satellite
View from above satellite

Ground track
Ground track

The orbit data is extracted from the following two-line orbital elements,

1 20580U 90037B   21062.35258968  .00000695  00000-0  31199-4 0  9998
2 20580  28.4706  47.0833 0002660   5.9619 140.8548 15.09571389495043
Epoch (UTC): 03 March 2021 08:27:43
Eccentricity: 0.0002660
inclination: 28.4706°
perigee height: 535 km
apogee height: 539 km
right ascension of ascending node: 47.0833°
argument of perigee: 5.9619°
revolutions per day: 15.09571389
mean anomaly at epoch: 140.8548°
orbit number at epoch: 49504

The dashed part of the orbit path shows where the satellite is in the earth's shadow,  

DLR